sat.trackr.live / text

‹ back to catalog

STARLINK-1043

NORAD 44748 · 2019-074AM

PAYLOAD ACTIVE UNKNOWN

§ Identity

Operator
Country
US
Launch date
2019-11-11
Launch site
AFETR
Launch vehicle
Mass (kg)
RCS (m²)

Purposes: comms

External: N2YO · Heavens-Above · Gunter

§ Orbital elements

Epoch: 2026-05-25T03:10:34.847328Z

Period
92.23 min
Inclination
53.0485°
Eccentricity
0.0001122
Mean motion
15.61326977 rev/d
Perigee alt
383.1 km
Apogee alt
384.6 km
Semi-major
6,762.0 km
B*
3.4552e-4
RAAN
184.1074°
Arg perigee
67.4406°
Mean anomaly
292.6725°
Rev number
36,055

§ Raw data

STARLINK-10431 44748U 19074AM  26145.13234777  .00029515  00000+0  34552-3 0  99932 44748  53.0485 184.1074 0001122  67.4406 292.6725 15.61326977360551

JSON: /api/v1/satellites/44748 · /tle

For live sub-satellite position, see the globe view (requires WebGL).

§ Visibility from observer

Set your observer location to see the next 7 days of passes ≥ 10°. The values pass through the URL so the page stays shareable.

No JS? Fill the form by hand. The geolocation button needs JavaScript.